Location: Newark
(42.7133°N, 87.7910°W)
Time: 21:45:30
(UTC+00:00)

Vanguard 1 Rocket - Pass Details

Date: 17 September 2019
Orbit: 650 x 4226 km, 34.3° (Epoch: 13 October)

Event Time Altitude Azimuth Distance (km) Brightness Sun altitude
Rises 02:55:17 0° 259° (W) 6,995 12.5 -30.8°
Reaches altitude 10° 03:00:52 10° 256° (WSW) 5,399 11.7 -31.6°
Enters shadow 03:13:39 52° 195° (SSW) 1,940 8.7 -33.3°
